Slayton, MN

12:38 PM CDT on October 21, 2017 (GMT -0500)
Slayton

Weather History for KDVP - March, 2014

Change the Weather History Date:

Wednesday, March 12, 2014

  Actual Average (KOTG) Record (KOTG)
Temperature  
Mean Temperature 28 °F -  
Max Temperature 32 °F 31 °F 68 °F (2015)
Min Temperature 23 °F 18 °F -5 °F (1984)
Degree Days  
Heating Degree Days 38    
Moisture  
Dew Point 23 °F    
Average Humidity 86    
Maximum Humidity 99    
Minimum Humidity 75    
Precipitation  
Precipitation 0.00 in - - ()
Sea Level Pressure  
Sea Level Pressure 30.08 in    
Wind  
Wind Speed 11 mph (NNW)    
Max Wind Speed 21 mph    
Max Gust Speed 31 mph    
Visibility 9 miles    
Events Snow    
Averages and records for this station are not official NWS values.
T = Trace of Precipitation, MM = Missing Value Source: NWS Daily Summary

Daily Weather History Graph

Daily Weather History Graph

Search for Another Location

Airport or City:

Trip Planner

Search our weather history database for the weather conditions in past years. The results will help you decide how hot, cold, wet, or windy it might be!

Date:

Astronomy

Mar. 12, 2014 Rise Set
Actual Time 7:40 AM CDT 7:25 PM CDT
Civil Twilight 7:11 AM CDT 7:54 PM CDT
Nautical Twilight 6:38 AM CDT 8:27 PM CDT
Astronomical Twilight 6:04 AM CDT 9:01 PM CDT
Moon 3:51 PM CDT (3/12) 5:19 AM CDT (3/12)
Length of Visible Light 12h 42m
Length of Day
11h 44m
Waxing Gibbous, 85% of the Moon is Illuminated
Mar 12
Waxing Gibbous
Mar 16
Full
Mar 23
Last Quarter
Mar 30
New
Apr 7
First Quarter

Hourly Weather History & Observations

Time (CDT) Temp. Windchill Dew Point Humidity Pressure Visibility Wind Dir Wind Speed Gust Speed Precip Events Conditions
12:12 AM 27.0 °F 13.5 °F 23.4 °F 86% 30.08 in 10.0 mi NNW 19.6 mph 25.3 mph N/A   Clear
12:31 AM 26.6 °F 13.8 °F 23.0 °F 86% 30.09 in 10.0 mi NNW 17.3 mph - N/A   Clear
12:52 AM 26.6 °F 12.7 °F 22.1 °F 83% 30.09 in 10.0 mi NNW 20.7 mph 31.1 mph N/A   Clear
1:12 AM 26.2 °F 13.4 °F 21.7 °F 83% 30.10 in 10.0 mi NNW 17.3 mph 24.2 mph N/A   Clear
1:32 AM 25.7 °F 11.9 °F 21.2 °F 83% 30.09 in 10.0 mi NNW 19.6 mph 25.3 mph N/A   Clear
1:51 AM 25.2 °F 12.0 °F 21.0 °F 84% 30.09 in 10.0 mi NNW 17.3 mph 20.7 mph N/A   Clear
2:12 AM 24.8 °F 11.9 °F 20.5 °F 84% 30.09 in 10.0 mi NNW 16.1 mph - N/A   Clear
2:32 AM 24.6 °F 11.7 °F 20.3 °F 84% 30.09 in 10.0 mi NNW 16.1 mph - N/A   Clear
2:52 AM 24.4 °F 12.4 °F 20.3 °F 84% 30.10 in 10.0 mi NNW 13.8 mph - N/A   Clear
3:12 AM 24.3 °F 11.7 °F 20.3 °F 85% 30.10 in 10.0 mi NNW 15.0 mph 20.7 mph N/A   Clear
3:32 AM 23.9 °F 11.7 °F 20.7 °F 87% 30.10 in 10.0 mi NNW 13.8 mph - N/A   Clear
3:52 AM 23.7 °F 13.3 °F 20.3 °F 87% 30.09 in 10.0 mi NNW 10.4 mph - N/A   Clear
4:13 AM 23.9 °F 11.2 °F 20.7 °F 87% 30.09 in 10.0 mi NNW 15.0 mph - N/A   Scattered Clouds
4:33 AM 23.9 °F 11.7 °F 21.2 °F 89% 30.09 in 10.0 mi NNW 13.8 mph 17.3 mph N/A   Overcast
4:52 AM 23.9 °F 11.2 °F 20.7 °F 87% 30.09 in 10.0 mi NNW 15.0 mph - N/A   Overcast
5:12 AM 23.9 °F 12.3 °F 19.9 °F 85% 30.09 in 10.0 mi North 12.7 mph - N/A   Overcast
5:33 AM 23.9 °F 11.7 °F 20.1 °F 85% 30.09 in 10.0 mi North 13.8 mph - N/A   Overcast
5:53 AM 23.9 °F 12.9 °F 20.1 °F 85% 30.10 in 10.0 mi NNW 11.5 mph - N/A   Overcast
6:12 AM 24.1 °F 14.4 °F 19.4 °F 82% 30.10 in 10.0 mi NNW 9.2 mph - N/A   Overcast
6:32 AM 23.9 °F 13.5 °F 19.2 °F 82% 30.11 in 10.0 mi North 10.4 mph - N/A Snow Light Snow
6:53 AM 23.9 °F 13.5 °F 19.4 °F 83% 30.11 in 10.0 mi NNW 10.4 mph - N/A   Overcast
7:13 AM 23.7 °F 14.0 °F 18.9 °F 82% 30.11 in 10.0 mi NNW 9.2 mph - N/A   Overcast
7:32 AM 23.9 °F 15.0 °F 19.2 °F 82% 30.11 in 10.0 mi North 8.1 mph - N/A   Overcast
7:52 AM 23.9 °F 15.0 °F 19.0 °F 82% 30.11 in 10.0 mi North 8.1 mph - N/A   Overcast
8:12 AM 23.5 °F 13.7 °F 16.7 °F 75% 30.11 in 10.0 mi North 9.2 mph - N/A   Overcast
8:33 AM 23.5 °F 14.5 °F 17.6 °F 78% 30.12 in 10.0 mi North 8.1 mph - N/A   Overcast
8:52 AM 23.0 °F 13.9 °F 16.7 °F 77% 30.12 in 10.0 mi North 8.1 mph - N/A   Overcast
9:12 AM 23.0 °F 15.8 °F 18.1 °F 82% 30.11 in 7.0 mi North 5.8 mph - N/A   Overcast
9:32 AM 23.0 °F 15.8 °F 18.1 °F 82% 30.12 in 10.0 mi North 5.8 mph - N/A   Overcast
9:52 AM 23.0 °F 15.8 °F 19.2 °F 85% 30.13 in 5.0 mi North 5.8 mph - N/A Snow Light Snow
10:12 AM 23.4 °F 17.4 °F 19.4 °F 85% 30.13 in 10.0 mi North 4.6 mph - N/A Snow Light Snow
10:33 AM 23.2 °F 17.2 °F 18.1 °F 81% 30.13 in 10.0 mi NE 4.6 mph - N/A   Overcast
10:52 AM 23.7 °F 19.3 °F 19.2 °F 83% 30.12 in 10.0 mi NNE 3.5 mph - N/A   Overcast
11:12 AM 23.5 °F 19.1 °F 18.7 °F 82% 30.12 in 10.0 mi North 3.5 mph - N/A   Overcast
11:32 AM 23.7 °F - 18.5 °F 80% 30.11 in 10.0 mi Calm Calm - N/A   Overcast
11:53 AM 23.9 °F - 19.0 °F 82% 30.12 in 7.0 mi Calm Calm - N/A Snow Light Snow
12:12 PM 23.9 °F - 18.9 °F 81% 30.12 in 10.0 mi Calm Calm - N/A   Overcast
12:32 PM 24.1 °F - 18.9 °F 80% 30.12 in 10.0 mi Calm Calm - N/A   Overcast
12:52 PM 24.8 °F - 19.4 °F 80% 30.11 in 10.0 mi Calm Calm - N/A   Overcast
1:13 PM 25.2 °F - 19.4 °F 79% 30.11 in 10.0 mi Calm Calm - N/A   Overcast
1:33 PM 25.5 °F - 19.6 °F 78% 30.11 in 10.0 mi Calm Calm - N/A   Overcast
1:53 PM 26.4 °F 22.4 °F 20.3 °F 78% 30.10 in 10.0 mi SSW 3.5 mph - N/A   Overcast
2:13 PM 26.8 °F 22.8 °F 21.2 °F 79% 30.10 in 10.0 mi SE 3.5 mph - N/A   Overcast
2:33 PM 26.6 °F - 21.0 °F 79% 30.10 in 10.0 mi Calm Calm - N/A   Overcast
2:52 PM 27.0 °F - 21.4 °F 79% 30.10 in 10.0 mi Calm Calm - N/A   Overcast
3:13 PM 27.3 °F 23.4 °F 22.1 °F 81% 30.09 in 10.0 mi South 3.5 mph - N/A   Overcast
3:32 PM 28.2 °F 23.1 °F 22.8 °F 80% 30.09 in 10.0 mi South 4.6 mph - N/A   Overcast
3:52 PM 28.8 °F 22.6 °F 23.4 °F 80% 30.07 in 10.0 mi South 5.8 mph - N/A   Overcast
4:12 PM 28.8 °F 22.6 °F 23.4 °F 80% 30.07 in 10.0 mi South 5.8 mph - N/A   Overcast
4:33 PM 28.9 °F 21.9 °F 23.9 °F 81% 30.06 in 10.0 mi South 6.9 mph - N/A   Overcast
4:52 PM 29.8 °F 21.5 °F 25.3 °F 83% 30.06 in 10.0 mi SSW 9.2 mph - N/A   Overcast
5:13 PM 30.7 °F 22.6 °F 26.4 °F 84% 30.05 in 10.0 mi SSW 9.2 mph - N/A   Overcast
5:32 PM 31.1 °F 22.4 °F 27.1 °F 85% 30.04 in 10.0 mi SSW 10.4 mph - N/A   Mostly Cloudy
5:52 PM 32.0 °F 24.2 °F 28.4 °F 87% 30.03 in 10.0 mi SW 9.2 mph - N/A   Scattered Clouds
6:13 PM 32.0 °F 24.8 °F 28.2 °F 86% 30.03 in 10.0 mi SW 8.1 mph - N/A   Clear
6:32 PM 32.0 °F 25.6 °F 28.8 °F 88% 30.03 in 10.0 mi SW 6.9 mph - N/A   Scattered Clouds
6:53 PM 31.8 °F 26.2 °F 28.9 °F 89% 30.03 in 10.0 mi SW 5.8 mph - N/A   Scattered Clouds
7:13 PM 31.1 °F - 29.1 °F 92% 30.03 in 10.0 mi Calm Calm - N/A   Clear
7:32 PM 30.9 °F 27.5 °F 29.1 °F 93% 30.02 in 10.0 mi South 3.5 mph - N/A   Scattered Clouds
7:52 PM 30.2 °F 26.7 °F 29.1 °F 96% 30.02 in 7.0 mi SE 3.5 mph - N/A   Scattered Clouds
8:12 PM 30.2 °F 25.4 °F 29.3 °F 96% 30.02 in 7.0 mi ESE 4.6 mph - N/A   Scattered Clouds
8:32 PM 30.2 °F 23.4 °F 29.7 °F 98% 30.02 in 7.0 mi SE 6.9 mph - N/A   Scattered Clouds
8:52 PM 30.2 °F 22.6 °F 29.8 °F 99% 30.02 in 7.0 mi SE 8.1 mph - N/A   Scattered Clouds
9:12 PM 30.2 °F 21.9 °F 29.8 °F 99% 30.01 in 7.0 mi SE 9.2 mph - N/A   Scattered Clouds
9:32 PM 30.6 °F 22.4 °F 30.0 °F 98% 30.01 in 7.0 mi SSE 9.2 mph - N/A   Mostly Cloudy
9:51 PM 30.9 °F 22.2 °F 30.2 °F 97% 30.01 in 7.0 mi SSE 10.4 mph - N/A   Overcast
10:12 PM 31.1 °F 22.4 °F 30.2 °F 96% 30.00 in 7.0 mi South 10.4 mph - N/A   Overcast
10:32 PM 31.1 °F 23.1 °F 30.2 °F 96% 30.00 in 7.0 mi South 9.2 mph - N/A   Overcast
10:52 PM 31.5 °F 24.2 °F 30.6 °F 96% 30.00 in 7.0 mi South 8.1 mph - N/A   Overcast
11:12 PM 31.6 °F 25.1 °F 30.9 °F 97% 29.99 in 7.0 mi South 6.9 mph - N/A   Overcast
11:32 PM 32.0 °F 23.6 °F 31.1 °F 96% 29.98 in 7.0 mi South 10.4 mph 17.3 mph N/A   Overcast
11:52 PM 32.0 °F 23.6 °F 30.9 °F 96% 29.97 in 7.0 mi South 10.4 mph - N/A   Overcast